Regional Weather Roundup
Issued by NWS

Home | Current Version | Previous Version | Text Only | Print | Product List | Glossary Off
Versions: 1 2 3 4 5 6 7 8 9 10 11 12 13 14 15 16 17 18 19 20 21 22 23 24 25 26 27 28 29 30 31 32 33 34 35 36 37 38 39 40 41 42 43 44 45 46 47 48 49 50

019
ASUS43 KDTX 290001
RWRMI
MICHIGAN HOURLY REGIONAL WEATHER ROUNDUP
NATIONAL WEATHER SERVICE DETROIT/PONTIAC MI
800 PM EDT SUN MAY 28 2017

NOTE: "FAIR" INDICATES FEW OR NO CLOUDS BELOW 12,000 FEET WITH NO
SIGNIFICANT WEATHER AND/OR OBSTRUCTION TO VISIBILITY.

MIZ047>049-052>055-059>063-066>070-074>076-081>083-290100-
SOUTHEAST LOWER MICHIGAN

CITY           SKY/WX    TMP DP  RH WIND       PRES   REMARKS
ADRIAN         CLOUDY    66  62  87 SW6       29.69F
6HR MIN TEMP:  63; 6HR MAX TEMP:  78; 6HR PCP:  0.12;

ALMA           CLOUDY    72  58  61 W10       29.68R
ANN ARBOR      PTCLDY    63  60  90 VRB3      29.69R
BAD AXE        CLOUDY    68  56  64 E6        29.65S
6HR MIN TEMP:  68; 6HR MAX TEMP:  76;

CARO           CLOUDY    75  59  57 S12G17    29.64R
DETROIT CITY   CLOUDY    65  63  93 SW3       29.69R
6HR MIN TEMP:  64; 6HR MAX TEMP:  77; 6HR PCP:  0.11;

DETROIT        CLOUDY    64  58  80 W3        29.70R
6HR MIN TEMP:  63; 6HR MAX TEMP:  78; 6HR PCP:  0.04;

FLINT          CLOUDY    69  62  78 S12G20    29.66R
6HR MIN TEMP:  69; 6HR MAX TEMP:  80; 6HR PCP: TRACE;

GROSSE ILE     PTCLDY    63  58  86 S7        29.68S
6HR MIN TEMP:  60; 6HR MAX TEMP:  72; 6HR PCP:  0.17;

HILLSDALE      MOCLDY    66  63  88 SW5       29.69S
HOWELL         LGT RAIN  66  62  88 S6        29.68R
6HR MIN TEMP:  65; 6HR MAX TEMP:  79; 6HR PCP:  0.94;


CITY           SKY/WX    TMP DP  RH WIND       PRES   REMARKS
JACKSON        MOCLDY    68  61  78 SW7       29.68S
6HR MIN TEMP:  68; 6HR MAX TEMP:  78; 6HR PCP:  0.02;

LAMBERTVILLE   CLOUDY    63  61  94 E5        29.68S
6HR MIN TEMP:  56; 6HR MAX TEMP:  73;

LANSING        CLOUDY    75  57  53 NW15G26   29.68R
6HR MIN TEMP:  75; 6HR MAX TEMP:  82;

LAPEER         MOCLDY    69  62  76 SE12      29.66S
6HR MIN TEMP:  69; 6HR MAX TEMP:  79;

MASON          CLOUDY    68  65  88 SE7       29.67R
MONROE         CLOUDY    63  59  87 S5        29.69F
6HR MIN TEMP:  62; 6HR MAX TEMP:  73; 6HR PCP:  0.32;

MT. CLEMENS    MOCLDY    63  63 100 S8        29.67F
6HR MIN TEMP:  63; 6HR MAX TEMP:  75; 6HR PCP:  0.04;

PONTIAC        LGT RAIN  65  62  90 S6        29.68R
6HR MIN TEMP:  63; 6HR MAX TEMP:  77; 6HR PCP:  1.27;

PORT HOPE        N/A     61  55  81 SE10      29.65S
6HR MIN TEMP:  58; 6HR MAX TEMP:  66;

PORT HURON     CLOUDY    66  59  77 S3        29.69R
TRI CITIES     PTSUNNY   74  59  59 NW13      29.65R
6HR MIN TEMP:  74; 6HR MAX TEMP:  79; 6HR PCP: TRACE;

MIDLAND        CLOUDY    75  56  51 NW3       29.65R
6HR MIN TEMP:  73; 6HR MAX TEMP:  79;

TROY           CLOUDY    66  59  77 SW9       29.71S
SAGINAW HB     MOCLDY    75  54  46 NW10      29.64R
$$
MIZ043>046-050>051-056>058-064>065-071>073-077>080-290100-
SOUTHWEST LOWER MICHIGAN

CITY           SKY/WX    TMP DP  RH WIND       PRES   REMARKS
BATTLE CREEK   MOSUNNY   71  59  65 W15G21    29.71R
6HR MIN TEMP:  71; 6HR MAX TEMP:  79;

BENTON HARBOR  SUNNY     65  57  75 W5        29.73F
6HR MIN TEMP:  64; 6HR MAX TEMP:  72;

BIG RAPIDS     SUNNY     68  51  54 NW7       29.69R
6HR MIN TEMP:  60; 6HR MAX TEMP:  71; 6HR PCP:  0.06;

COLDWATER      MOSUNNY   72  61  68 W13       29.70R
6HR MIN TEMP:  68; 6HR MAX TEMP:  77;

FREMONT        FAIR      68  50  53 W6        29.71R
HOLLAND        SUNNY     65  56  72 W5        29.73S
6HR MIN TEMP:  65; 6HR MAX TEMP:  75;

GRAND RAPIDS   MOSUNNY   70  54  56 W14       29.70R
6HR MIN TEMP:  69; 6HR MAX TEMP:  77; 6HR PCP:  0.05;

IONIA          FAIR      72  54  52 W14       29.68R
6HR MIN TEMP:  72; 6HR MAX TEMP:  79;

KALAMAZOO      SUNNY     69  55  60 W12G20    29.72R
6HR MIN TEMP:  69; 6HR MAX TEMP:  79;

LUDINGTON      SUNNY     61  56  84 S7        29.68S
6HR MIN TEMP:  57; 6HR MAX TEMP:  66;

MARSHALL       MOSUNNY   72  59  64 W16G22    29.69R
6HR MIN TEMP:  72; 6HR MAX TEMP:  80;

MOUNT PLEASANT MOSUNNY   72  55  56 W9G16     29.67R
6HR MIN TEMP:  69; 6HR MAX TEMP:  78;

MUSKEGON       MOSUNNY   63  55  75 SW6       29.72R
6HR MIN TEMP:  63; 6HR MAX TEMP:  72; 6HR PCP: TRACE;

SOUTH HAVEN    SUNNY     65  59  80 CALM      29.73F
$$
MIZ016>042-290100-
NORTHERN LOWER MICHIGAN

CITY           SKY/WX    TMP DP  RH WIND       PRES   REMARKS
ALPENA         CLOUDY    61  58  90 CALM      29.69R
6HR MIN TEMP:  60; 6HR MAX TEMP:  75; 6HR PCP:  0.28;

BEAVER ISLAND  FOG       53  52  94 CALM      29.69R VSB 1/2
6HR MIN TEMP:  53; 6HR MAX TEMP:  64;

BELLAIRE       SUNNY     65  55  69 SW3       29.68R
6HR MIN TEMP:  56; 6HR MAX TEMP:  67;

CADILLAC       SUNNY     65  54  66 W7        29.69R
CHARLEVOIX     SUNNY     63  56  77 W9        29.71R
6HR MIN TEMP:  55; 6HR MAX TEMP:  65;

FRANKFORT      SUNNY     63  54  72 SW3       29.67R
GAYLORD        PTSUNNY   67  54  63 W3        29.69R
6HR MIN TEMP:  58; 6HR MAX TEMP:  68; 6HR PCP:  0.11;

GRAYLING       MOSUNNY   67  57  69 SW5       29.69R
HARBOR SPRINGS CLOUDY    63  60  88 CALM      29.68R
HOUGHTON LAKE  PTSUNNY   69  56  62 W10       29.69R
6HR MIN TEMP:  60; 6HR MAX TEMP:  72; 6HR PCP:  0.03;

MANISTEE       SUNNY     66  56  70 S6        29.67R
OSCODA         LGT RAIN  64  55  74 NW7       29.68R
6HR MIN TEMP:  64; 6HR MAX TEMP:  74;

PELLSTON       CLOUDY    63  56  78 SE3       29.69R
6HR MIN TEMP:  57; 6HR MAX TEMP:  64; 6HR PCP:  0.17;

ROGERS CITY    CLOUDY    59  57  94 S5        29.70R
TRAVERSE CITY  MOSUNNY   66  55  67 VRB3      29.66R
6HR MIN TEMP:  58; 6HR MAX TEMP:  69; 6HR PCP:  0.06;

$$
MIZ007>008-015-290100-
EASTERN UPPER MICHIGAN

CITY           SKY/WX    TMP DP  RH WIND       PRES   REMARKS
KINROSS        CLOUDY    58  57  97 VRB3      29.70R
6HR MIN TEMP:  57; 6HR MAX TEMP:  62;

MACKINAC ISLAN CLOUDY    56  56 100 CALM      29.68R
6HR MIN TEMP:  50; 6HR MAX TEMP:  58; 6HR PCP:  0.21;

NEWBERRY       CLOUDY    55  54  97 SW8       29.69R
6HR MIN TEMP:  55; 6HR MAX TEMP:  61; 6HR PCP:  0.12;

S. S. MARIE    CLOUDY    59  56  89 S5        29.68R
6HR MIN TEMP:  58; 6HR MAX TEMP:  60; 6HR PCP:  0.10;

MUNISING         N/A     56  54  93 SW7       29.64F
6HR MIN TEMP:  54; 6HR MAX TEMP:  66; 6HR PCP:  0.27;

$$
MIZ004>006-011>014-085-290100-
CENTRAL UPPER MICHIGAN

CITY           SKY/WX    TMP DP  RH WIND       PRES   REMARKS
MANISTIQUE     LGT RAIN  51  48  90 S3        29.67F
6HR MIN TEMP:  49; 6HR MAX TEMP:  57; 6HR PCP:  0.04;

ESCANABA       LGT RAIN  55  54  96 E7        29.66R
6HR MIN TEMP:  53; 6HR MAX TEMP:  62; 6HR PCP:  0.29;

SAWYER-GWINN   MOSUNNY   55  54  94 S7        29.65F
$$
MIZ001>003-009>011-084-290100-
WESTERN UPPER MICHIGAN

CITY           SKY/WX    TMP DP  RH WIND       PRES   REMARKS
IRON MOUNTAIN  SUNNY     61  52  72 NW7       29.64S
6HR MIN TEMP:  57; 6HR MAX TEMP:  72; 6HR PCP:  0.19;

HOUGHTON       CLOUDY    57  50  77 NW5       29.63R
6HR MIN TEMP:  52; 6HR MAX TEMP:  68; 6HR PCP:  0.15;

COPPER HARBOR    N/A     55  49  80 N6        29.62R
6HR MIN TEMP:  50; 6HR MAX TEMP:  64; 6HR PCP:  0.01;

IRONWOOD       LGT RAIN  53  51  93 NW5       29.66R
6HR MIN TEMP:  53; 6HR MAX TEMP:  62;

$$

ABBREVIATIONS USED IN REMARKS
   TC - TEMPERATURE IN CELSIUS
  WCI - WIND CHILL INDEX
   HX - HEAT INDEX
  VSB - VISIBILITY





USA.gov is the U.S. government's official web portal to all federal, state and local government web resources and services.